Flag for Germany Weather past 2 weeks in Bautzen, Saxony, Germany

Now
67 °F

Sunny.


Feels Like: 67 °F
Forecast: 40 / 51 °F
Wind: 7 mph from Northwest

Location: Goerlitz

Current Time: Apr 21, 2015 at 4:13:21 PM

Latest Report: Apr 21, 2015 at 3:00 PM


Visibility: 25 mi

Pressure: 30.15 "Hg

Humidity: 24%

Dew point: 29 °F

Location of BautzenLocation

Historic Weather in Bautzen — Graph

°F

Bautzen temperature yesterday

Maximum temperature yesterday: 62 °F (at 4:00 PM)
Minimum temperature yesterday: 38 °F (at 6:00 AM)
Average temperature yesterday: 50 °F

Past Weeks' High & Low Weather Summary

 TemperatureHumidityPressure
High70 °F (Apr 11, 4:00 PM)97% (Apr 9, 6:00 AM)30.58 "Hg (Apr 9, 6:00 AM)
Low29 °F (Apr 7, 5:00 AM)24% (Apr 21, 3:00 PM)29.87 "Hg (Apr 15, 11:00 PM)
Average48 °F65%30.23 "Hg
* Reported Apr 6 3:00 PM — Apr 21 3:00 PM, Bautzen, Weather by CustomWeather, © 2015

Note: Actual official high and low records may vary slightly from our data, if they occured in-between our weather recording intervals... More about our weather records

Advertising

Bautzen weather history for previous 24 hours

 ConditionsComfort  
Time TempWeatherWind HumidityBarometerVisibility
3:00 PM
Tue, Apr 21
67 °FSunny.7 mph24%30.15 "Hg25 mi
2:00 PM65 °FSunny.7 mph36%30.18 "Hg34 mi
1:00 PM61 °FSunny.8 mph42%30.21 "Hg34 mi
12:00 PM59 °FSunny.8 mph43%30.24 "Hg34 mi
11:00 AM57 °FSunny.7 mph47%30.26 "Hg37 mi
10:00 AM53 °FSunny.6 mph53%30.27 "Hg37 mi
9:00 AM50 °FPassing clouds.6 mph58%30.29 "Hg37 mi
8:00 AM46 °FPassing clouds.3 mph66%30.29 "Hg37 mi
7:00 AM38 °FPassing clouds.2 mph81%30.30 "Hg47 mi
6:00 AM37 °FPassing clouds.3 mph81%30.30 "Hg37 mi
5:00 AM37 °FPassing clouds.3 mph84%30.32 "Hg37 mi
4:00 AM38 °FOvercast.3 mph80%30.33 "Hg37 mi
3:00 AM41 °FClear.2 mph71%30.33 "Hg37 mi
2:00 AM42 °FPassing clouds.2 mph69%30.32 "Hg37 mi
1:00 AM43 °FPassing clouds.2 mph68%30.31 "Hg37 mi
12:00 AM46 °FPassing clouds.2 mph60%30.29 "Hg37 mi
11:00 PM
Mon, Apr 20
46 °FPassing clouds.5 mph61%30.28 "Hg37 mi
10:00 PM48 °FOvercast.6 mph61%30.26 "Hg37 mi
9:00 PM52 °FOvercast.6 mph54%30.23 "Hg37 mi
8:00 PM55 °FOvercast.7 mph49%30.20 "Hg37 mi
7:00 PM58 °FOvercast.9 mph46%30.17 "Hg47 mi
6:00 PM60 °FPartly sunny.9 mph42%30.16 "Hg47 mi
5:00 PM62 °FPartly sunny.9 mph36%30.15 "Hg47 mi
4:00 PM62 °FPassing clouds.7 mph37%30.16 "Hg47 mi
Weather by CustomWeather, © 2015

See weather overviewHow to use our weather pages